Orleans, France

9:42 AM CET on December 13, 2017 (GMT +0100)
Bricy Air Base

Weather History for LFOJ - November, 2012

Change the Weather History Date:

Tuesday, November 20, 2012

  Actual Average Record
Temperature  
Mean Temperature 48 °F -  
Max Temperature 53 °F - - ()
Min Temperature 42 °F - - ()
Degree Days  
Heating Degree Days 18    
Moisture  
Dew Point 46 °F    
Average Humidity 94    
Maximum Humidity 100    
Minimum Humidity 77    
Precipitation  
Precipitation 0.00 in - - ()
Sea Level Pressure  
Sea Level Pressure 30.00 in    
Wind  
Wind Speed 5 mph ()    
Max Wind Speed 10 mph    
Max Gust Speed -    
Visibility 2.8 miles    
Events Fog    
T = Trace of Precipitation, MM = Missing Value Source: Averaged Metar Reports

Daily Weather History Graph

Daily Weather History Graph

Search for Another Location

Airport or City:

Trip Planner

Search our weather history database for the weather conditions in past years. The results will help you decide how hot, cold, wet, or windy it might be!

Date:

Astronomy

Nov. 20, 2012 Rise Set
Actual Time 8:07 AM CET 5:09 PM CET
Civil Twilight 7:32 AM CET 5:44 PM CET
Nautical Twilight 6:54 AM CET 6:22 PM CET
Astronomical Twilight 6:17 AM CET 6:59 PM CET
Moon 1:19 PM CET (11/20) No Moon Set
Length of Visible Light 10h 11m
Length of Day
9h 02m
Waxing Crescent, 48% of the Moon is Illuminated
Nov 20
Waxing Crescent
Nov 20
First Quarter
Nov 28
Full
Dec 6
Last Quarter
Dec 13
New

Hourly Weather History & Observations

Time (CET) Temp. Windchill Dew Point Humidity Pressure Visibility Wind Dir Wind Speed Gust Speed Precip Events Conditions
12:00 AM 48.2 °F - 48.2 °F 100% 30.01 in 3.1 mi South 4.6 mph - N/A   Mostly Cloudy
12:30 AM 48.2 °F - 48.2 °F 100% 30.04 in 3.1 mi South 3.5 mph - N/A   Overcast
1:00 AM 48.2 °F - 48.2 °F 100% 30.01 in 1.7 mi South 4.6 mph - N/A   Scattered Clouds
1:30 AM 46.4 °F 43.5 °F 46.4 °F 100% 30.01 in 0.2 mi South 5.8 mph - N/A Fog Fog
2:00 AM 46.4 °F 43.5 °F 44.6 °F 93% 30.01 in 0.1 mi SSE 5.8 mph - N/A Fog Fog
2:30 AM 46.4 °F 45.2 °F 46.4 °F 100% 30.01 in 0.1 mi South 3.5 mph - N/A Fog Fog
3:00 AM 46.4 °F 44.3 °F 46.4 °F 100% 30.01 in 0.1 mi South 4.6 mph - N/A Fog Fog
3:30 AM 46.4 °F 42.9 °F 46.4 °F 100% 30.01 in 0.1 mi South 6.9 mph - N/A Fog Fog
4:00 AM 46.4 °F 45.2 °F 46.4 °F 100% 30.01 in 0.1 mi South 3.5 mph - N/A Fog Fog
4:30 AM 46.4 °F 44.3 °F 44.6 °F 93% 30.01 in 0.1 mi South 4.6 mph - N/A Fog Fog
5:00 AM 44.6 °F 42.2 °F 44.6 °F 100% 30.01 in 0.1 mi SSE 4.6 mph - N/A Fog Fog
5:30 AM 44.6 °F 42.2 °F 44.6 °F 100% 30.01 in 0.1 mi South 4.6 mph - N/A Fog Fog
6:00 AM 44.6 °F 43.1 °F 44.6 °F 100% 30.01 in 0.1 mi SSE 3.5 mph - N/A Fog Fog
6:30 AM 44.6 °F 41.4 °F 44.6 °F 100% 30.01 in 0.1 mi SSE 5.8 mph - N/A Fog Fog
7:00 AM 44.6 °F 41.4 °F 44.6 °F 100% 30.01 in 0.1 mi SSE 5.8 mph - N/A Fog Fog
7:30 AM 44.6 °F 42.2 °F 44.6 °F 100% 30.01 in 0.1 mi South 4.6 mph - N/A Fog Fog
8:00 AM 44.6 °F 40.7 °F 44.6 °F 100% 30.01 in 0.2 mi SSE 6.9 mph - N/A Fog Fog
8:30 AM 44.6 °F 41.4 °F 44.6 °F 100% 30.01 in 0.2 mi SSE 5.8 mph - N/A Fog Fog
9:00 AM 44.6 °F 41.4 °F 44.6 °F 100% 30.04 in 0.2 mi SSE 5.8 mph - N/A Fog Fog
9:30 AM 44.6 °F 41.4 °F 44.6 °F 100% 30.04 in 0.3 mi SSE 5.8 mph - N/A Fog Fog
10:00 AM 44.6 °F 40.7 °F 44.6 °F 100% 30.04 in 0.5 mi South 6.9 mph - N/A Fog Fog
10:30 AM 46.4 °F 43.5 °F 46.4 °F 100% 30.04 in 5.0 mi SSE 5.8 mph - N/A   Mostly Cloudy
11:00 AM 48.2 °F - 48.2 °F 100% 30.04 in 6.2 mi SSE 6.9 mph - N/A   Unknown
11:30 AM 50.0 °F - 48.2 °F 94% 30.04 in 6.2 mi SSE 9.2 mph - N/A   Unknown
12:00 PM 50.0 °F - 48.2 °F 94% 30.01 in 6.2 mi SSE 6.9 mph - N/A   Unknown
12:30 PM 51.8 °F - 48.2 °F 88% 30.01 in 6.2 mi SSE 5.8 mph - N/A   Unknown
1:00 PM 53.6 °F - 48.2 °F 82% 30.01 in 6.2 mi South 8.1 mph - N/A   Unknown
1:30 PM 53.6 °F - 46.4 °F 77% 30.01 in 6.2 mi SSE 8.1 mph - N/A   Unknown
2:00 PM 53.6 °F - 48.2 °F 82% 30.01 in 6.2 mi South 6.9 mph - N/A   Unknown
2:30 PM 53.6 °F - 46.4 °F 77% 30.01 in 6.2 mi South 5.8 mph - N/A   Unknown
3:00 PM 53.6 °F - 46.4 °F 77% 29.98 in 6.2 mi SSE 6.9 mph - N/A   Unknown
3:30 PM 53.6 °F - 46.4 °F 77% 29.98 in 6.2 mi SSE 6.9 mph - N/A   Unknown
4:00 PM 51.8 °F - 46.4 °F 82% 29.98 in 6.2 mi SSE 4.6 mph - N/A   Unknown
4:30 PM 51.8 °F - 48.2 °F 88% 29.98 in 6.2 mi SSE 4.6 mph - N/A   Unknown
5:00 PM 50.0 °F - 46.4 °F 87% 29.98 in 6.2 mi SSE 5.8 mph - N/A   Unknown
5:30 PM 50.0 °F - 46.4 °F 87% 29.98 in 6.2 mi SSE 4.6 mph - N/A   Unknown
6:00 PM 48.2 °F - 46.4 °F 93% 29.98 in 6.2 mi SE 4.6 mph - N/A   Unknown
6:30 PM 48.2 °F - 46.4 °F 93% 29.98 in 6.2 mi ESE 5.8 mph - N/A   Unknown
7:00 PM 46.4 °F 43.5 °F 44.6 °F 93% 29.98 in 6.2 mi ESE 5.8 mph - N/A   Unknown
7:30 PM 46.4 °F 43.5 °F 44.6 °F 93% 29.98 in 6.2 mi ESE 5.8 mph - N/A   Unknown
8:00 PM 46.4 °F 43.5 °F 46.4 °F 100% 29.98 in 3.7 mi ESE 5.8 mph - N/A   Unknown
8:30 PM 46.4 °F 41.9 °F 44.6 °F 93% 29.95 in 1.4 mi ESE 9.2 mph - N/A   Overcast
9:00 PM 46.4 °F 41.5 °F 44.6 °F 93% 29.95 in 0.5 mi SE 10.4 mph - N/A Fog Fog
9:30 PM 46.4 °F 41.9 °F 44.6 °F 93% 29.95 in - SE 9.2 mph - N/A Fog Fog
10:00 PM 44.6 °F 39.7 °F 44.6 °F 100% 29.95 in 0.2 mi ESE 9.2 mph - N/A Fog Fog
10:30 PM 44.6 °F 39.2 °F 44.6 °F 100% 29.95 in 0.2 mi ESE 10.4 mph - N/A Fog Fog
11:00 PM 42.8 °F 38.0 °F 42.8 °F 100% 29.92 in 0.2 mi ESE 8.1 mph - N/A Fog Fog
11:30 PM 42.8 °F 38.6 °F 42.8 °F 100% 29.92 in 0.3 mi SE 6.9 mph - N/A Fog Fog